23.05.2024;08:00;27
23.05.2024;07:00;21
23.05.2024;06:00;19
23.05.2024;05:00;27
23.05.2024;04:00;26
23.05.2024;03:00;31
23.05.2024;02:00;40
23.05.2024;01:00;44
23.05.2024;00:00;57
22.05.2024;23:00;67
22.05.2024;22:00;75
22.05.2024;21:00;72
22.05.2024;20:00;87
22.05.2024;19:00;87
22.05.2024;18:00;86
22.05.2024;17:00;85
22.05.2024;16:00;80
22.05.2024;15:00;87
22.05.2024;14:00;81
22.05.2024;13:00;77
22.05.2024;12:00;69
22.05.2024;11:00;62
22.05.2024;10:00;55
22.05.2024;09:00;47
22.05.2024;08:00;37
22.05.2024;07:00;34
22.05.2024;06:00;36
22.05.2024;05:00;38
22.05.2024;04:00;45
22.05.2024;03:00;51
22.05.2024;02:00;53
22.05.2024;01:00;52
22.05.2024;00:00;57
21.05.2024;23:00;66
21.05.2024;22:00;70
21.05.2024;21:00;69
21.05.2024;20:00;71
21.05.2024;19:00;69
21.05.2024;18:00;62
21.05.2024;17:00;59
21.05.2024;16:00;61
21.05.2024;15:00;69
21.05.2024;14:00;62
21.05.2024;13:00;70
21.05.2024;12:00;74
21.05.2024;11:00;62
21.05.2024;10:00;49
21.05.2024;09:00;26
